This demonstration page uses our WeatherBlox Daily Observations layout. Learn more.

Left ArrowRight Arrow

38.89511, -77.03637

Hourly Observations for February 8, 2017

Temp ( °F °C ) Dew Point ( °F °C ) Humidity (%) Winds ( mph kmh ) Pressure ( in mb ) Visibility ( mi km ) Precip ( " mm )
12:52 am 00:52 Cloudy 63 17.2 54 12.2 73 73 S 12 19 29.58 1002 10 16 0.00 0.00
1:52 am 01:52 Cloudy 64 17.8 54 12.2 70 70 SSW 14 22 29.59 1002 10 16 0.00 0.00
2:52 am 02:52 Cloudy 63 17.2 53 11.7 70 70 SSW 12 19 29.59 1002 10 16 0.00 0.00
3:52 am 03:52 Clear 60 15.6 52 11.1 75 75 S 9 15 29.59 1002 10 16 0.00 0.00
4:52 am 04:52 Cloudy 56 13.3 51 10.6 84 84 S 10 17 29.60 1002 10 16 0.00 0.00
5:52 am 05:52 Cloudy 57 13.9 50 10 78 78 S 9 15 29.60 1003 10 16 0.00 0.00
6:52 am 06:52 Mostly Cloudy 52 11.1 49 9.4 89 89 SSW 8 13 29.61 1003 10 16 0.00 0.00
7:52 am 07:52 Mostly Cloudy 55 12.8 50 10 83 83 SW 3 6 29.63 1003 10 16 0.00 0.00
8:52 am 08:52 Mostly Cloudy 59 15 52 11.1 78 78 S 7 11 29.65 1004 10 16 0.00 0.00
9:52 am 09:52 Mostly Cloudy 66 18.9 50 10 56 56 SW 5 7 29.67 1005 10 16 0.00 0.00
10:52 am 10:52 Mostly Cloudy 67 19.4 51 10.6 57 57 VRB 5 7 29.68 1005 10 16 0.00 0.00
11:52 am 11:52 Mostly Cloudy 73 22.8 46 7.8 38 38 W 15 24 29.69 1005 10 16 0.00 0.00
12:52 pm 12:52 Mostly Cloudy 72 22.2 47 8.3 41 41 N 13 20 29.65 1004 10 16 0.00 0.00
1:52 pm 13:52 Mostly Cloudy 72 22.2 46 7.8 40 40 NNW 12 19 29.65 1004 10 16 0.00 0.00
2:52 pm 14:52 Mostly Cloudy 70 21.1 46 7.8 42 42 NNW 15 24 29.65 1004 10 16 0.00 0.00
3:52 pm 15:52 Mostly Cloudy 68 20 45 7.2 44 44 N 12 19 29.66 1004 10 16 0.00 0.00
4:52 pm 16:52 Mostly Cloudy 64 17.8 44 6.7 48 48 NNW 12 19 29.66 1005 10 16 0.00 0.00
5:52 pm 17:52 Mostly Cloudy 60 15.6 43 6.1 53 53 N 10 17 29.67 1005 10 16 0.00 0.00
6:52 pm 18:52 Mostly Cloudy 59 15 44 6.7 58 58 N 9 15 29.67 1005 10 16 0.00 0.00
7:52 pm 19:52 Mostly Cloudy 57 13.9 42 5.6 58 58 NE 8 13 29.68 1005 10 16 0.00 0.00
8:52 pm 20:52 Mostly Cloudy 56 13.3 41 5 57 57 NE 8 13 29.66 1004 10 16 0.00 0.00
9:52 pm 21:52 Mostly Cloudy 54 12.2 42 5.6 64 64 ENE 10 17 29.62 1003 10 16 0.00 0.00
10:52 pm 22:52 Cloudy 53 11.7 41 5 64 64 ENE 12 19 29.62 1003 10 16 0.00 0.00
11:52 pm 23:52 Cloudy with Light Rain 53 11.7 41 5 64 64 NE 8 13 29.61 1003 10 16 0.00 0.03

Powered by AerisWeather